Regional Weather Roundup
Issued by NWS Sioux Falls, SD

Home | Current Version | Previous Version | Text Only | Print | Product List | Glossary On
Versions: 1 2 3 4 5 6 7 8 9 10 11 12 13 14 15 16 17 18 19 20 21 22 23 24 25 26 27 28 29 30 31 32 33 34 35 36 37 38 39 40 41 42 43 44 45 46 47 48 49 50
000
ASUS43 KFSD 190810
RWRFSD

WEATHER ROUNDUP FOR SE SOUTH DAKOTA/SW MINNESOTA/NW IOWA
NATIONAL WEATHER SERVICE SIOUX FALLS SD
300 AM CDT TUE SEP 19 2017

NOTE: "FAIR" INDICATES FEW OR NO CLOUDS BELOW 12,000 FEET WITH NO
SIGNIFICANT WEATHER AND OR OBSTRUCTIONS TO VISIBILITY.


SDZ038>040-050-052>070-190900-
SOUTHEAST SOUTH DAKOTA

CITY           SKY/WX    TMP DP  RH WIND       PRES   REMARKS
BROOKINGS      CLOUDY    65  63  93 S14       29.83F
CHAMBERLAIN    PTCLDY    61  61 100 E9        29.72F
HURON          MOCLDY    64  63  96 SE13G20   29.75F
MADISON        CLOUDY    64  64 100 S15       29.83F
MITCHELL       CLOUDY    67  65  93 SE13      29.78F
SIOUX FALLS    CLOUDY    68  66  93 S9        29.83F FOG
WINNER         FAIR      67  60  78 S16G23    29.71F
YANKTON        CLOUDY    66  65  96 SE10      29.81F
$$

MNZ071-072-080-081-089-090-097-098-190900-
SOUTHWEST MINNESOTA

CITY           SKY/WX    TMP DP  RH WIND       PRES   REMARKS
FAIRMONT       FOG       62  61  96 S8        29.90F VSB 1/4
JACKSON        CLOUDY    63  63 100 S8        29.90S FOG
LUVERNE        CLOUDY    64  63  94 S7        29.86F
MARSHALL       MOCLDY    63  63 100 SE6       29.85F FOG
MONTEVIDEO     CLOUDY    63  63 100 S7        29.85F FOG
PIPESTONE      CLOUDY    66  64  94 S10       29.85F FOG
REDWOOD FALLS  CLOUDY    64  62  93 SE6       29.87F FOG
TRACY          MOCLDY    64  64 100 S6        29.86F FOG
WINDOM         CLOUDY    64  63  94 S6        29.89S FOG
WORTHINGTON    CLOUDY    64  63  96 S7        29.89S FOG
$$

IAZ001>003-012>014-020>022-031-032-NEZ013-014-SDZ071-190900-
NORTHWEST IOWA

CITY           SKY/WX    TMP DP  RH WIND       PRES   REMARKS
CHEROKEE       CLOUDY    64  64 100 CALM      29.87F
DENISON        CLOUDY    66  64  94 S14       29.90F FOG
ESTHERVILLE    CLOUDY    63  63 100 S12       29.89S FOG
LE MARS        PTCLDY    63  63 100 SE3       29.85F
ORANGE CITY    CLOUDY    66  66 100 S5        29.87F FOG
SHELDON        MOCLDY    64  64 100 SE7       29.86F
SIOUX CITY     CLOUDY    64  64 100 SE9       29.84F
SPENCER        CLOUDY    65  64  97 S8        29.89F
STORM LAKE     CLOUDY    64  63  94 SE7       29.90S FOG
$$

ABBREVIATIONS USED IN REMARKS
   TC - TEMPERATURE IN CELSIUS
  WCI - WIND CHILL INDEX
   HX - HEAT INDEX
  VSB - VISIBILITY




USA.gov is the U.S. government's official web portal to all federal, state and local government web resources and services.